This is the latest recevied weather packets stored in our database for station/object SQ3MKP-13. If no packets are shown the sender has not sent any weather packets the latest 10 day(s).
| Time | Temp. | Humidity | Pressure | Rain* | Wind** | Luminosity | Snow |
|---|---|---|---|---|---|---|---|
| 1777385477 | 13.33° C | 27% | 1015.2 hPa | - | - | 342 W/m² | - |
| 1777385176 | 13.33° C | 27% | 1015.2 hPa | - | - | 68 W/m² | - |
| 1777384875 | 12.78° C | 27% | 1015.2 hPa | - | - | 68 W/m² | - |
| 1777384574 | 12.22° C | 28% | 1015.2 hPa | - | - | 364 W/m² | - |
| 1777384272 | 12.22° C | 28% | 1015.3 hPa | - | - | 136 W/m² | - |
| 1777383971 | 12.22° C | 29% | 1015.3 hPa | - | - | 445 W/m² | - |
| 1777383670 | 12.22° C | 29% | 1015.4 hPa | - | - | 460 W/m² | - |
| 1777383369 | 12.22° C | 28% | 1015.4 hPa | - | - | 421 W/m² | - |
| 1777383068 | 11.67° C | 28% | 1015.3 hPa | - | - | 490 W/m² | - |
| 1777382767 | 12.78° C | 28% | 1015.5 hPa | - | - | 510 W/m² | - |
| 1777382466 | 12.78° C | 28% | 1015.5 hPa | - | - | 520 W/m² | - |
| 1777382165 | 11.67° C | 28% | 1015.5 hPa | - | - | 538 W/m² | - |
| 1777381863 | 11.67° C | 28% | 1015.5 hPa | - | - | 542 W/m² | - |
| 1777381561 | 11.67° C | 27% | 1015.6 hPa | - | - | 555 W/m² | - |
| 1777380960 | 12.22° C | 27% | 1015.7 hPa | - | - | 584 W/m² | - |
| 1777380658 | 12.22° C | 27% | 1015.7 hPa | - | - | 597 W/m² | - |
| 1777380357 | 12.22° C | 27% | 1015.8 hPa | - | - | 597 W/m² | - |
| 1777380056 | 12.22° C | 29% | 1015.8 hPa | - | - | 562 W/m² | - |
| 1777379755 | 12.22° C | 28% | 1015.8 hPa | - | - | 544 W/m² | - |
| 1777379454 | 12.22° C | 28% | 1015.8 hPa | - | - | 637 W/m² | - |
| 1777379153 | 12.22° C | 30% | 1015.9 hPa | - | - | 553 W/m² | - |
| 1777378853 | 12.22° C | 29% | 1015.8 hPa | - | - | 663 W/m² | - |
| 1777378551 | 11.67° C | 29% | 1015.9 hPa | - | - | 644 W/m² | - |
| 1777378250 | 12.22° C | 29% | 1016 hPa | - | - | 499 W/m² | - |
| 1777377949 | 11.67° C | 29% | 1016 hPa | - | - | 593 W/m² | - |
* Rain since midnight (hover to see other rain measurements)
** Current wind speed in m/s (hover to see current wind gust speed)